• In Germany
  • List of Countries
  • For 7 days
  • Water Temperature
  • Satellite Maps
  • Weather Map
  • Weather Widgets
  • user-avatar
    Login

    Hourly Weather Nakhchivan

    Today, 20 September, Wednesday

    Time Temperature Precipitation Wind Pressure Humidity
    00:00 +25°C° 0 mm 1 mps 689 mmHg 24%
    01:00 +25°C° 0 mm 1 mps 689 mmHg 25%
    02:00 +24°C° 0 mm 1 mps 689 mmHg 26%
    03:00 +24°C° 0 mm 1 mps 689 mmHg 27%
    04:00 +23°C° 0 mm 1 mps 689 mmHg 28%
    05:00 +23°C° 0 mm 1 mps 689 mmHg 29%
    06:00 +22°C° 0 mm 1 mps 689 mmHg 29%
    07:00 +25°C° 0 mm 1 mps 689 mmHg 25%
    08:00 +27°C° 0 mm 1 mps 690 mmHg 21%
    09:00 +30°C° 0 mm 1 mps 690 mmHg 18%
    10:00 +31°C° 0 mm 1 mps 690 mmHg 16%
    11:00 +32°C° 0 mm 1 mps 690 mmHg 15%
    12:00 +34°C° 0 mm 2 mps 690 mmHg 13%
    13:00 +35°C° 0 mm 2 mps 690 mmHg 13%
    14:00 +35°C° 0 mm 2 mps 690 mmHg 12%
    15:00 +35°C° 0 mm 2 mps 689 mmHg 13%
    16:00 +34°C° 0 mm 2 mps 689 mmHg 14%
    17:00 +31°C° 0 mm 2 mps 689 mmHg 16%
    18:00 +30°C° 0 mm 1 mps 689 mmHg 17%
    19:00 +29°C° 0 mm 1 mps 689 mmHg 19%
    20:00 +28°C° 0 mm 1 mps 689 mmHg 21%
    21:00 +27°C° 0 mm 1 mps 689 mmHg 23%
    22:00 +27°C° 0 mm 1 mps 689 mmHg 24%
    23:00 +26°C° 0 mm 1 mps 689 mmHg 25%

    Tomorrow, 21 September, Thursday

    Time Temperature Precipitation Wind Pressure Humidity
    00:00 +25°C° 0 mm 1 mps 689 mmHg 27%
    01:00 +25°C° 0 mm 1 mps 689 mmHg 28%
    02:00 +24°C° 0 mm 1 mps 689 mmHg 29%
    03:00 +24°C° 0 mm 1 mps 688 mmHg 29%
    04:00 +23°C° 0 mm 1 mps 688 mmHg 30%
    05:00 +23°C° 0 mm 1 mps 688 mmHg 30%
    06:00 +23°C° 0 mm 1 mps 688 mmHg 30%
    07:00 +25°C° 0 mm 1 mps 689 mmHg 26%
    08:00 +27°C° 0 mm 1 mps 689 mmHg 23%
    09:00 +29°C° 0 mm 1 mps 689 mmHg 19%
    10:00 +31°C° 0 mm 1 mps 689 mmHg 18%
    11:00 +32°C° 0 mm 1 mps 689 mmHg 16%
    12:00 +34°C° 0 mm 2 mps 689 mmHg 15%
    13:00 +34°C° 0 mm 2 mps 688 mmHg 14%
    14:00 +35°C° 0 mm 2 mps 688 mmHg 14%
    15:00 +35°C° 0 mm 2 mps 688 mmHg 13%
    16:00 +34°C° 0 mm 2 mps 688 mmHg 15%
    17:00 +32°C° 0 mm 2 mps 687 mmHg 16%
    18:00 +31°C° 0 mm 2 mps 687 mmHg 18%
    19:00 +30°C° 0 mm 2 mps 687 mmHg 20%
    20:00 +29°C° 0 mm 2 mps 687 mmHg 23%
    21:00 +28°C° 0 mm 2 mps 688 mmHg 25%
    22:00 +27°C° 0 mm 2 mps 687 mmHg 26%
    23:00 +27°C° 0 mm 2 mps 687 mmHg 28%

    Day after tomorrow, 22 September, Friday

    Time Temperature Precipitation Wind Pressure Humidity
    00:00 +26°C° 0 mm 2 mps 687 mmHg 29%
    01:00 +26°C° 0 mm 2 mps 687 mmHg 31%
    02:00 +25°C° 0 mm 2 mps 687 mmHg 32%
    03:00 +25°C° 0 mm 2 mps 687 mmHg 33%
    04:00 +24°C° 0 mm 1 mps 687 mmHg 34%
    05:00 +24°C° 0 mm 1 mps 687 mmHg 35%
    06:00 +23°C° 0 mm 1 mps 687 mmHg 36%
    07:00 +25°C° 0 mm 1 mps 687 mmHg 32%
    08:00 +27°C° 0 mm 1 mps 687 mmHg 28%
    09:00 +30°C° 0 mm 1 mps 688 mmHg 23%
    10:00 +31°C° 0 mm 2 mps 687 mmHg 21%
    11:00 +32°C° 0 mm 2 mps 687 mmHg 18%
    12:00 +35°C° 0 mm 3 mps 687 mmHg 16%
    13:00 +35°C° 0 mm 3 mps 687 mmHg 15%
    14:00 +36°C° 0 mm 3 mps 686 mmHg 14%
    15:00 +36°C° 0 mm 3 mps 686 mmHg 13%
    16:00 +35°C° 0 mm 3 mps 686 mmHg 14%
    17:00 +34°C° 0 mm 3 mps 686 mmHg 16%
    18:00 +33°C° 0 mm 3 mps 686 mmHg 18%
    19:00 +31°C° 0 mm 3 mps 686 mmHg 22%
    20:00 +29°C° 0 mm 2 mps 686 mmHg 25%
    21:00 +28°C° 0 mm 2 mps 686 mmHg 29%
    22:00 +27°C° 0 mm 2 mps 686 mmHg 32%
    23:00 +26°C° 0 mm 2 mps 686 mmHg 35%

    23 September, Saturday

    Time Temperature Precipitation Wind Pressure Humidity
    00:00 +26°C° 0 mm 2 mps 686 mmHg 37%
    01:00 +25°C° 0 mm 2 mps 687 mmHg 39%
    02:00 +25°C° 0 mm 2 mps 687 mmHg 41%
    03:00 +24°C° 0 mm 1 mps 687 mmHg 43%
    04:00 +23°C° 0 mm 1 mps 687 mmHg 44%
    05:00 +23°C° 0 mm 1 mps 687 mmHg 45%
    06:00 +22°C° 0 mm 1 mps 687 mmHg 47%
    07:00 +24°C° 0 mm 1 mps 688 mmHg 41%
    08:00 +26°C° 0 mm 1 mps 688 mmHg 36%
    09:00 +28°C° 0 mm 1 mps 689 mmHg 30%
    10:00 +29°C° 0 mm 2 mps 689 mmHg 27%
    11:00 +30°C° 0 mm 2 mps 688 mmHg 24%
    12:00 +32°C° 0 mm 2 mps 688 mmHg 22%
    13:00 +32°C° 0 mm 2 mps 688 mmHg 20%
    14:00 +33°C° 0 mm 3 mps 688 mmHg 19%
    15:00 +34°C° 0 mm 3 mps 688 mmHg 18%
    16:00 +33°C° 0 mm 3 mps 688 mmHg 21%
    17:00 +31°C° 0 mm 3 mps 688 mmHg 23%
    18:00 +29°C° 0 mm 3 mps 688 mmHg 25%
    19:00 +28°C° 0 mm 2 mps 688 mmHg 29%
    20:00 +27°C° 0 mm 2 mps 688 mmHg 32%
    21:00 +26°C° 0 mm 2 mps 689 mmHg 36%
    22:00 +26°C° 0 mm 2 mps 689 mmHg 39%
    23:00 +25°C° 0 mm 2 mps 689 mmHg 42%

    24 September, Sunday

    Time Temperature Precipitation Wind Pressure Humidity
    00:00 +24°C° 0 mm 2 mps 689 mmHg 45%
    01:00 +24°C° 0 mm 2 mps 689 mmHg 46%
    02:00 +23°C° 0 mm 1 mps 689 mmHg 48%
    03:00 +23°C° 0 mm 1 mps 689 mmHg 49%
    04:00 +22°C° 0 mm 1 mps 689 mmHg 49%
    05:00 +22°C° 0 mm 1 mps 689 mmHg 50%
    06:00 +22°C° 0 mm 1 mps 689 mmHg 50%
    07:00 +23°C° 0 mm 1 mps 689 mmHg 44%
    08:00 +25°C° 0 mm 1 mps 690 mmHg 38%
    09:00 +27°C° 0 mm 1 mps 690 mmHg 32%
    10:00 +28°C° 0 mm 1 mps 690 mmHg 29%
    11:00 +29°C° 0 mm 2 mps 690 mmHg 26%
    12:00 +31°C° 0 mm 2 mps 690 mmHg 23%
    13:00 +31°C° 0 mm 2 mps 689 mmHg 22%
    14:00 +32°C° 0 mm 2 mps 689 mmHg 21%
    15:00 +33°C° 0 mm 3 mps 689 mmHg 20%
    16:00 +31°C° 0 mm 3 mps 689 mmHg 22%
    17:00 +30°C° 0 mm 3 mps 689 mmHg 25%
    18:00 +29°C° 0 mm 3 mps 689 mmHg 27%
    19:00 +28°C° 0 mm 3 mps 689 mmHg 30%
    20:00 +27°C° 0 mm 2 mps 690 mmHg 34%
    21:00 +26°C° 0 mm 2 mps 690 mmHg 37%
    22:00 +25°C° 0 mm 2 mps 690 mmHg 39%
    23:00 +24°C° 0 mm 2 mps 690 mmHg 41%

    25 September, Monday

    Time Temperature Precipitation Wind Pressure Humidity
    00:00 +24°C° 0 mm 2 mps 690 mmHg 43%
    01:00 +23°C° 0 mm 1 mps 690 mmHg 44%
    02:00 +23°C° 0 mm 1 mps 689 mmHg 45%
    03:00 +22°C° 0 mm 1 mps 689 mmHg 46%
    04:00 +22°C° 0 mm 1 mps 689 mmHg 47%
    05:00 +21°C° 0 mm 1 mps 689 mmHg 48%
    06:00 +21°C° 0 mm 1 mps 690 mmHg 49%
    07:00 +23°C° 0 mm 1 mps 690 mmHg 43%
    08:00 +25°C° 0 mm 1 mps 690 mmHg 38%
    09:00 +27°C° 0 mm 1 mps 691 mmHg 32%
    10:00 +28°C° 0 mm 1 mps 690 mmHg 29%
    11:00 +29°C° 0 mm 1 mps 690 mmHg 25%
    12:00 +30°C° 0 mm 2 mps 690 mmHg 22%
    13:00 +31°C° 0 mm 2 mps 690 mmHg 20%
    14:00 +31°C° 0 mm 2 mps 689 mmHg 18%
    15:00 +32°C° 0 mm 2 mps 689 mmHg 17%
    16:00 +31°C° 0 mm 2 mps 689 mmHg 19%
    17:00 +29°C° 0 mm 2 mps 689 mmHg 21%
    18:00 +28°C° 0 mm 2 mps 689 mmHg 23%
    19:00 +27°C° 0 mm 2 mps 689 mmHg 28%
    20:00 +26°C° 0 mm 2 mps 690 mmHg 32%
    21:00 +25°C° 0 mm 2 mps 690 mmHg 36%
    22:00 +25°C° 0 mm 2 mps 690 mmHg 38%
    23:00 +24°C° 0 mm 2 mps 690 mmHg 40%
    Show more